Regional Weather Roundup
Issued by NWS

Home | Current Version | Previous Version | Graphics & Text | Print | Product List | Glossary On
Versions: 1 2 3 4 5 6 7 8 9 10 11 12 13 14 15 16 17 18 19 20 21 22 23 24 25 26 27 28 29 30 31 32 33 34 35 36 37 38 39 40 41 42 43 44 45 46 47 48 49 50
000
ASUS45 KBOI 181210
RWRID

IDAHO REGIONAL WEATHER ROUNDUP
NATIONAL WEATHER SERVICE BOISE ID
500 AM MST WED JAN 18 2017

NOTE: "FAIR" INDICATES FEW OR NO CLOUDS BELOW 12000 FEET
WITH NO SIGNIFICANT WEATHER AND/OR OBSTRUCTIONS TO VISIBILITY

IDZ012-014-181300-
SOUTHWEST IDAHO


CITY           SKY/WX    TMP DP  RH WIND       PRES   REMARKS
BOISE          CLOUDY    10   5  80 E5        30.08F HAZE    WCI   2
CALDWELL       CLOUDY     8   4  83 W3        30.15S FOG
MOUNTAIN HOME  CLOUDY    21  15  77 SE26      30.04F WCI   3
$$

IDZ016-017-181300-
SOUTHCENTRAL IDAHO


CITY           SKY/WX    TMP DP  RH WIND       PRES   REMARKS
BURLEY         CLEAR     15   8  73 NE10      30.04F WCI   2
JEROME         CLEAR     15   8  73 NE24      30.04F WCI  -4
TWIN FALLS     CLEAR     12   8  84 E8        30.04F WCI   0
$$

IDZ019>023-181300-
SOUTHEAST IDAHO


CITY           SKY/WX    TMP DP  RH WIND       PRES   REMARKS
IDAHO FALLS    CLOUDY    -2  -5  87 N6        30.12F WCI -14
POCATELLO      CLOUDY     0  -3  87 N7        30.11F WCI -13
REXBURG        CLOUDY    -2  -6  83 NE7       30.11F WCI -15
$$

IDZ006-010-011-018-031-032-181300-
CENTRAL IDAHO MOUNTAINS


CITY           SKY/WX    TMP DP  RH WIND       PRES   REMARKS
MCCALL         LGT SNOW  20  16  84 NW6       29.94S FOG     WCI  12
HAILEY         PTCLDY    16  10  79 NW9       30.06F WCI   4
STANLEY          N/A      5   2  87 CALM      29.97F
SALMON         CLOUDY    -6  -8  92 CALM      30.09F
CHALLIS        MOCLDY    -7 -11  83 CALM      30.04F
$$

IDZ002-004-006-007-026-181300-
NORTHERN IDAHO


CITY           SKY/WX    TMP DP  RH WIND       PRES   REMARKS
LEWISTON       LGT RAIN  36  27  69 E10       29.80F WCI  28
LOWELL           N/A     29  25  85 N5        29.90F WCI  24
COEUR D`ALENE  MIX PCPN  31  30  96 NE5       29.72F WCI  26
MULLAN PASS    SNOW      27  26  96 VRB7      29.69F VSB 1/2 WCI  19
$$



USA.gov is the U.S. government's official web portal to all federal, state and local government web resources and services.